[[{"header":{"parameterUnit":"m.s-1","parameterCategory":1,"la1":30.2991,"la2":30.254,"lo1":-89.0895,"lo2":-89.0444,"dy":0.0017,"dx":0.0017,"nx":28,"ny":28,"refTime":"2024-12-16T03:00:00:Z","depth":0,"parameterNumber":2,"parameterNumberName":"U-component_of_WINDS"},"data":[0,0,0,0,0,0,0,0,0,0,0,0,0,0,0,0,0,0,0,0,0,0,0,0,0,0,0,0,0,0,0,0,0,0,0,0,0,0,0,0,0,0,0,0,0,0,0,0,0,0,0,0,0,0,0,0,0,0,-5.341,-5.341,0,-5.3436,-5.3436,-5.3437,-5.3352,-5.3349,-5.3347,-5.3344,-5.3368,-5.3371,-5.3374,0,0,0,0,0,0,0,0,0,0,0,0,0,-5.3286,-5.3289,-5.341,-5.341,-5.341,-5.3436,-5.3436,-5.3437,-5.3352,-5.3349,-5.3346,-5.3343,-5.3367,-5.3371,-5.3374,0,0,0,0,0,0,0,0,0,0,0,0,0,-5.3329,-5.329,-5.341,-5.3371,-5.3368,-5.3436,-5.3436,-5.3437,-5.3353,-5.3349,-5.3345,-5.3342,-5.3366,-5.337,-5.3375,-5.348,0,0,-5.3389,-5.3391,0,0,0,0,0,0,0,0,-5.3327,-5.3333,-5.3377,-5.3374,-5.3371,-5.3387,-5.3401,-5.3451,-5.3354,-5.3359,-5.3344,-5.334,-5.3377,-5.3381,-5.3394,-5.3481,-5.3482,-5.3389,-5.3392,-5.3394,-5.3395,0,0,0,0,0,0,0,-5.3324,-5.3332,-5.342,-5.3378,-5.3374,-5.3353,-5.3355,-5.341,-5.3389,-5.3358,-5.3352,-5.3356,-5.3375,-5.339,-5.3394,-5.3482,-5.3389,-5.3393,-5.3396,-5.3398,-5.3659,-5.3663,0,0,0,0,0,0,-5.3326,-5.333,-5.3419,-5.3421,-5.3339,-5.3358,-5.336,-5.3385,-5.3388,-5.3385,-5.336,-5.3352,-5.3384,-5.3389,-5.3394,-5.3518,-5.3394,-5.3398,-5.3401,-5.3655,-5.366,-5.3665,0,0,0,0,0,0,-5.3324,-5.3335,-5.3418,-5.3374,-5.3383,-5.3364,-5.3393,-5.3388,-5.3403,-5.339,-5.3385,-5.3379,-5.3381,-5.3388,-5.346,-5.3517,-5.34,-5.3404,-5.365,-5.3656,-5.3662,-5.3766,0,0,0,0,0,0,-5.332,-5.3334,-5.3374,-5.3375,-5.3386,-5.3483,-5.3397,-5.3391,-5.3411,-5.3402,-5.3406,-5.3403,-5.3379,-5.3454,-5.3464,-5.3522,-5.3408,-5.3645,-5.3653,-5.366,-5.3757,-5.3775,-5.379,0,0,0,0,0,-5.3316,-5.34,-5.3376,-5.3387,-5.3434,-5.3487,-5.3492,-5.3463,-5.3416,-5.3455,-5.3448,-5.3403,-5.351,-5.3462,-5.3473,-5.3533,-5.3641,-5.365,-5.366,-5.3749,-5.3771,-5.379,0,0,0,0,0,0,-5.3403,-5.34,-5.3373,-5.346,-5.3475,-5.3472,-5.3521,-5.3487,-5.3514,-5.3504,-5.3466,-5.3468,-5.3547,-5.3547,-5.3493,-5.3636,-5.3567,-5.358,-5.3632,-5.3652,-5.3668,-5.3665,-5.3412,0,0,0,0,0,-5.3434,-5.3477,-5.3471,-5.3549,-5.3558,-5.3539,-5.356,-5.3537,-5.355,-5.3555,-5.3553,-5.3567,-5.3604,-5.3628,-5.3661,-5.3758,-5.3758,-5.3805,-5.3821,-5.3835,-5.3845,-5.3898,-5.3918,-5.3696,-5.3696,-5.3695,0,0,-5.3494,-5.3498,-5.3527,-5.3567,-5.3575,-5.3621,-5.3544,-5.3595,-5.3629,-5.3563,-5.363,-5.363,-5.3643,-5.3728,-5.3766,-5.3731,-5.3908,-5.3847,-5.3858,-5.3861,-5.3909,-5.3931,-5.3949,-5.3702,-5.3701,-5.37,0,0,-5.3629,-5.3636,-5.3702,-5.3714,-5.3729,-5.3716,-5.3733,-5.3737,-5.3734,-5.3803,-5.3755,-5.3795,-5.3859,-5.3871,-5.3885,-5.403,-5.399,-5.4042,-5.4127,-5.4179,-5.4196,-5.4211,-5.4263,-5.4282,-5.4053,-5.4053,-5.4053,0,-5.3702,-5.3769,-5.374,-5.3796,-5.3815,-5.3761,-5.3828,-5.384,-5.3865,-5.3879,-5.3841,-5.3922,-5.3927,-5.4015,-5.4051,-5.4065,-5.4082,-5.4039,-5.4196,-5.4211,-5.4225,-5.4274,-5.4293,-5.4059,-5.4059,-5.4058,-5.4057,0,-5.3859,-5.3907,-5.3959,-5.3986,-5.4012,-5.4073,-5.4053,-5.4083,-5.4059,-5.4051,-5.4122,-5.4128,-5.4162,-5.4182,-5.4158,-5.4267,-5.4245,-5.4203,-5.4133,-5.4253,-5.4298,-5.4316,-5.4068,-5.4066,-5.4064,-5.4063,0,0,-5.4043,-5.4058,-5.4077,-5.409,-5.4106,-5.4142,-5.4202,-5.4237,-5.4263,-5.4284,-5.4333,-5.4391,-5.4353,-5.437,-5.4347,-5.4393,-5.4508,-5.4345,-5.4345,-5.4374,-5.4629,-5.466,-5.4682,-5.4484,-5.4487,-5.449,-5.4628,0,-5.4175,-5.4277,-5.4255,-5.4356,-5.4401,-5.4353,-5.4405,-5.4421,-5.4416,-5.4454,-5.4448,-5.449,-5.4436,-5.4446,-5.449,-5.4485,-5.4558,-5.4475,-5.4528,-5.453,-5.4523,-5.4705,-5.4736,-5.4866,-5.4645,-5.4648,-5.465,0,-5.434,-5.437,-5.4476,-5.4487,-5.4505,-5.4552,-5.4584,-5.4621,-5.4638,-5.4632,-5.4654,-5.4624,-5.4684,-5.4617,-5.4699,-5.4643,-5.4664,-5.4665,-5.467,-5.4671,-5.4595,-5.471,-5.4907,-5.4926,-5.4678,-5.4676,-5.4674,0,-5.4463,-5.453,-5.4602,-5.4615,-5.463,-5.4665,-5.4673,-5.4686,-5.471,-5.4739,-5.4754,-5.4789,-5.4808,-5.4836,-5.4817,-5.4769,-5.4902,-5.4833,-5.4898,-5.4899,-5.4925,-5.4923,-5.5126,-5.4943,-5.4943,-5.4942,-5.4942,0,-5.461,-5.4677,-5.4658,-5.4702,-5.4776,-5.4752,-5.4825,-5.4828,-5.4842,-5.4886,-5.4847,-5.4889,-5.4863,-5.4903,-5.4889,-5.4959,-5.4968,-5.4965,-5.4959,-5.4967,-5.4967,-5.4977,-5.4967,-5.4947,-5.4946,-5.4945,-5.4944,0,-5.4757,-5.4748,-5.4824,-5.4834,-5.4838,-5.4892,-5.4901,-5.4942,-5.4937,-5.4994,-5.5006,-5.4997,-5.5043,-5.5028,-5.5077,-5.5068,-5.5157,-5.5141,-5.5151,-5.5146,-5.5212,-5.5205,-5.5427,-5.5454,-5.5255,-5.5257,-5.5259,0,-5.485,-5.4901,-5.4918,-5.4946,-5.4958,-5.5002,-5.5028,-5.5007,-5.5035,-5.5062,-5.51,-5.5144,-5.5176,-5.5252,-5.525,-5.5288,-5.5272,-5.5347,-5.5277,-5.5283,-5.5271,-5.5267,-5.5272,-5.536,-5.5362,-5.5364,-5.5366,0,-5.5017,-5.5011,-5.5049,-5.5087,-5.5119,-5.5148,-5.5173,-5.5198,-5.5179,-5.5213,-5.526,-5.5286,-5.5339,-5.5382,-5.5417,-5.5425,-5.5392,-5.5389,-5.5405,-5.5411,-5.5414,-5.5413,-5.5187,-5.5382,-5.5381,-5.538,-5.5379,-5.5378,-5.5138,-5.5182,-5.5202,-5.5247,-5.5264,-5.529,-5.533,-5.5332,-5.5372,-5.5413,-5.54,-5.5455,-5.5474,-5.5519,-5.5532,-5.5574,-5.5545,-5.557,-5.5575,-5.5581,-5.5589,-5.5411,-5.5581,-5.558,-5.558,-5.558,-5.5579,0,-5.5301,-5.5313,-5.5355,-5.5393,-5.5429,-5.5399,-5.5427,-5.5458,-5.5507,-5.5529,-5.5564,-5.562,-5.5663,-5.5667,-5.5708,-5.5741,-5.5728,-5.5752,-5.5748,-5.5751,-5.5613,-5.5594,-5.5763,-5.5763,-5.5763,-5.5763,-5.5763,-5.5763,-5.5389,-5.5462,-5.5459,-5.5541,-5.5552,-5.5607,-5.5625,-5.5649,-5.5667,-5.5732,-5.5768,-5.5772,-5.5787,-5.5829,-5.5867,-5.5868,-5.5883,-5.5914,-5.5908,-5.5778,-5.576,-5.5742,-5.5724,-5.5918,-5.5918,-5.6041,-5.6043,-5.6043]},{"header":{"parameterUnit":"m.s-1","parameterCategory":1,"la1":30.2991,"la2":30.254,"lo1":-89.0895,"lo2":-89.0444,"dy":0.0017,"dx":0.0017,"nx":28,"ny":28,"refTime":"2024-12-16T03:00:00:Z","depth":0,"parameterNumber":3,"parameterNumberName":"V-component_of_WINDS"},"data":[0,0,0,0,0,0,0,0,0,0,0,0,0,0,0,0,0,0,0,0,0,0,0,0,0,0,0,0,0,0,0,0,0,0,0,0,0,0,0,0,0,0,0,0,0,0,0,0,0,0,0,0,0,0,0,0,0,0,0.7889,0.7889,0,0.7858,0.7858,0.7857,0.7888,0.789,0.7891,0.7892,0.7855,0.7853,0.7851,0,0,0,0,0,0,0,0,0,0,0,0,0,0.7973,0.7972,0.7889,0.7889,0.7888,0.7858,0.7858,0.7857,0.7888,0.789,0.7891,0.7893,0.7856,0.7853,0.7851,0,0,0,0,0,0,0,0,0,0,0,0,0,0.7939,0.7971,0.7889,0.79,0.7901,0.7858,0.7858,0.7857,0.7888,0.789,0.7892,0.7893,0.7857,0.7854,0.7851,0.7794,0,0,0.7841,0.7839,0,0,0,0,0,0,0,0,0.7941,0.7936,0.7899,0.7899,0.79,0.7879,0.7874,0.7836,0.7887,0.7893,0.7892,0.7894,0.7861,0.7858,0.7848,0.7792,0.779,0.784,0.7839,0.7837,0.7836,0,0,0,0,0,0,0,0.7943,0.7937,0.7877,0.7898,0.7899,0.7906,0.7903,0.7867,0.7867,0.7892,0.7895,0.7891,0.7862,0.7851,0.7847,0.779,0.7841,0.7838,0.7836,0.7834,0.7689,0.7687,0,0,0,0,0,0,0.7945,0.7939,0.7878,0.7876,0.7926,0.7903,0.79,0.7884,0.7867,0.7867,0.7889,0.7892,0.7855,0.7851,0.7846,0.778,0.7837,0.7834,0.7832,0.7691,0.7689,0.7686,0,0,0,0,0,0,0.7946,0.7939,0.7879,0.7908,0.7901,0.79,0.7881,0.7882,0.7871,0.7865,0.7865,0.7878,0.7857,0.785,0.7808,0.778,0.7833,0.783,0.7693,0.769,0.7688,0.7647,0,0,0,0,0,0,0.7949,0.7939,0.7918,0.7907,0.7899,0.7841,0.788,0.788,0.7866,0.787,0.7854,0.7853,0.7858,0.7812,0.7804,0.7776,0.7827,0.7696,0.7692,0.7688,0.7651,0.7644,0.7637,0,0,0,0,0,0.7952,0.7906,0.7917,0.7909,0.7873,0.784,0.7835,0.7842,0.7864,0.7842,0.7839,0.7854,0.7784,0.7807,0.7799,0.7769,0.7697,0.7693,0.7689,0.7654,0.7645,0.7637,0,0,0,0,0,0,0.7911,0.7905,0.7916,0.7866,0.7854,0.7845,0.7818,0.7831,0.7811,0.7815,0.7823,0.7819,0.7774,0.7767,0.7794,0.7715,0.7744,0.7738,0.7721,0.7712,0.7705,0.7708,0.7825,0,0,0,0,0,0.7897,0.7871,0.7867,0.7823,0.7817,0.7818,0.7804,0.7811,0.7797,0.7792,0.7785,0.777,0.7745,0.7728,0.7705,0.7651,0.7649,0.7626,0.7619,0.7613,0.7608,0.7581,0.7572,0.7672,0.7672,0.7672,0,0,0.7865,0.7859,0.7842,0.7815,0.7806,0.7779,0.7813,0.7783,0.7763,0.7786,0.7747,0.7741,0.7725,0.7678,0.7656,0.767,0.758,0.7608,0.7603,0.7601,0.7576,0.7566,0.7558,0.7669,0.767,0.767,0,0,0.7796,0.7788,0.7753,0.7744,0.7731,0.7733,0.7724,0.7715,0.7713,0.7673,0.7691,0.7667,0.7623,0.7613,0.7601,0.7532,0.7545,0.7523,0.7486,0.746,0.7452,0.7445,0.7422,0.7413,0.7518,0.7518,0.7518,0,0.7759,0.7721,0.7732,0.7702,0.769,0.7712,0.7676,0.7667,0.7646,0.7637,0.7654,0.7602,0.7592,0.7543,0.7527,0.7516,0.7507,0.7525,0.7453,0.7446,0.7439,0.7417,0.7408,0.7515,0.7516,0.7516,0.7516,0,0.7677,0.765,0.7622,0.7605,0.759,0.7556,0.7563,0.7546,0.7555,0.7556,0.7516,0.7507,0.7483,0.7472,0.7479,0.7424,0.7434,0.7451,0.7481,0.7427,0.7407,0.7398,0.7512,0.7513,0.7513,0.7514,0,0,0.7578,0.757,0.756,0.7554,0.7543,0.7522,0.749,0.747,0.7456,0.7441,0.7416,0.738,0.7397,0.7384,0.7391,0.7368,0.7316,0.7388,0.7388,0.7376,0.7257,0.7245,0.7235,0.7326,0.7324,0.7323,0.7259,0,0.751,0.7457,0.7468,0.7416,0.7393,0.7416,0.7388,0.7379,0.7379,0.7358,0.7358,0.7334,0.7357,0.735,0.7329,0.7327,0.7292,0.7331,0.7301,0.73,0.7305,0.7224,0.721,0.715,0.7251,0.725,0.7249,0,0.7422,0.7408,0.7355,0.7351,0.7341,0.7317,0.73,0.728,0.727,0.7272,0.726,0.7272,0.7241,0.7271,0.7229,0.7256,0.7244,0.7242,0.724,0.7237,0.7271,0.722,0.7131,0.7123,0.7236,0.7237,0.7238,0,0.7358,0.7325,0.729,0.7283,0.7277,0.726,0.7256,0.7248,0.7236,0.7221,0.7213,0.7194,0.7183,0.7168,0.7175,0.7196,0.7132,0.7163,0.7133,0.7133,0.7118,0.7119,0.7027,0.711,0.711,0.711,0.711,0,0.7281,0.7248,0.7262,0.724,0.7204,0.7217,0.718,0.7179,0.7172,0.7151,0.7168,0.7147,0.7157,0.7137,0.7142,0.7107,0.7102,0.7103,0.7104,0.7101,0.7102,0.7094,0.7098,0.7108,0.7108,0.7108,0.7109,0,0.7203,0.721,0.7174,0.7172,0.7171,0.7145,0.7143,0.7123,0.7126,0.7099,0.7093,0.7097,0.7074,0.708,0.7054,0.7058,0.7015,0.7021,0.7019,0.702,0.6991,0.6994,0.6891,0.6879,0.6969,0.6968,0.6967,0,0.7153,0.7129,0.7126,0.7114,0.711,0.7089,0.7078,0.709,0.7078,0.7066,0.7048,0.7027,0.7012,0.6975,0.6975,0.6956,0.6963,0.6928,0.696,0.6959,0.6964,0.6965,0.6964,0.6922,0.6921,0.692,0.6919,0,0.7065,0.7071,0.7055,0.7041,0.7028,0.7016,0.7007,0.6995,0.7007,0.6992,0.6971,0.6959,0.6935,0.6915,0.6899,0.6894,0.6909,0.691,0.6902,0.6899,0.6899,0.69,0.7002,0.6912,0.6912,0.6913,0.6913,0.6914,0.7,0.6981,0.6977,0.6959,0.6954,0.6945,0.6927,0.6929,0.6912,0.6895,0.6903,0.6879,0.6872,0.6852,0.6846,0.6827,0.6839,0.6828,0.6825,0.6822,0.6819,0.6902,0.6823,0.6824,0.6824,0.6824,0.6824,0,0.6914,0.6914,0.6897,0.6885,0.6871,0.6889,0.688,0.6867,0.6846,0.6839,0.6825,0.6801,0.6783,0.6783,0.6765,0.675,0.6757,0.6745,0.6747,0.6746,0.6808,0.6817,0.6741,0.6741,0.6741,0.6741,0.6741,0.6741,0.6868,0.6837,0.6843,0.681,0.6809,0.6787,0.6781,0.6773,0.6768,0.6742,0.6728,0.6729,0.6725,0.6708,0.6692,0.6692,0.6685,0.6672,0.6675,0.6733,0.6741,0.6749,0.6757,0.667,0.667,0.6614,0.6614,0.6613]}]]